< < Back
Terminal Aerodrome Forecast


Current Version              Previous Versions:   1  2  3  4  5  6  7  8  9  

Terminal Aerodrome Forecast

193
FTUS44 KMOB 040526
TAFMOB
TAF
KMOB 040526Z 0406/0506 15011KT 4SM BR OVC002
     FM040800 15006KT 1/4SM FG OVC004
     FM041500 18011KT 4SM BR OVC007
     FM042100 17011KT P6SM BKN025
     FM050400 16005KT 2SM BR OVC003=

Latest METAR

714
SAUS80 KWBC 041200 RRA
MTRMOB
METAR KMOB 041156Z 13006KT 3SM BR BKN005 OVC034 18/18 A3003 RMK AO2
SLP166 T01830183 10189 20183 53003


USA.gov is the U.S. government's official web portal to all federal, state and local government web resources and services.